1289779232863,1.39875
1289779292863,1.38504
1289779352863,1.39697
1289779412863,1.38587
1289779472863,1.39122
1289779532863,1.39408
1289779592863,1.39775
1289779652863,1.39527
1289779712863,1.39677
1289779772863,1.39304
1289779832863,1.40680
1289779892863,1.39189
1289779952863,1.38008
1289780012863,1.39404
1289780072863,1.38642
1289780132863,1.40178
1289780192863,1.39623
1289780252863,1.39874
1289780312863,1.38922
1289780372863,1.40004
1289780432863,1.38819
1289780492863,1.39904
1289780552863,1.39088
1289780612863,1.39321
1289780672863,1.39708
1289780732863,1.39555
1289780792863,1.39113
1289780852863,1.39145
1289780912863,1.39835
1289780972863,1.47041
1289781032863,1.38582
1289781092863,1.39053
1289781152863,1.40205
1289781212863,1.39498
1289781272863,1.40364
1289781332863,1.40009
1289781392863,1.39928
1289781452863,1.38739
1289781512863,1.39055
1289781572863,1.39411
1289781632863,1.40104
1289781692863,1.40453
1289781752863,1.38412
1289781812863,1.39539
1289781872863,1.40601
1289781932863,1.39274
1289781992863,1.39368
1289782052863,1.39724
1289782112863,1.39373
1289782172863,1.40157
1289782232863,1.39641
1289782292863,1.39924
1289782352863,1.39985
1289782412863,1.40109
1289782472863,1.41249
1289782532863,1.41114
1289782592863,1.40732
1289782652863,1.40603
1289782712863,1.39953
1289782772863,1.39654
1289782832874,1.40172
1289782892874,1.39387
1289782952874,1.45454
1289783012874,1.42378
1289783072874,1.40404
1289783132874,1.40646
1289783192874,1.40314
1289783252874,1.39640
1289783312874,1.40451
1289783372874,1.39816
1289783432874,1.40473
1289783492874,1.40017
1289784032874,1.39585
1289784092874,1.39171
1289784152874,1.40367
1289784212874,1.40239
1289784272874,1.40400
1289784332874,1.40554
1289784392874,1.41346
1289784452874,1.39185
1289784512874,1.39489
1289784572874,1.41393
1289784632874,1.40198
1289784692874,1.40809
1289784752874,1.39964
1289784812874,1.40904
1289784872874,1.39955
1289784932874,1.41721
1289784992874,1.40829
1289785052874,1.40652
1289785112874,1.41276
1289785172874,1.40862
1289785232874,1.40204
1289785292874,1.40354
1289785352874,1.40355
1289785412874,1.41062
1289785472874,1.40259
1289785532874,1.41247
1289785592874,1.40235
1289785652874,1.41006
1289785712874,1.41039
1289785772874,1.41207
1289785832874,1.41212
1289785892874,1.41656
1289785952874,1.40080
1289786012874,1.40381
1289786072874,1.40805
1289786132874,1.41663
1289786192874,1.40273
1289786252874,1.40951
1289786312874,1.40698
1289786372874,1.41127
1289786432884,1.41605
1289786492884,1.41558
1289786552884,1.40568
1289786612884,1.41783
1289786672884,1.41656
1289786732884,1.40989
1289786792884,1.40731
1289786852884,1.41607
1289786912884,1.41874
1289786972884,1.40514
1289787032884,1.41182
1289787092884,1.41013
1289787152884,1.41447
1289787212884,1.40315
1289787272884,1.41896
1289787332884,1.41629
1289787392884,1.41989
1289787452884,1.41550
1289787512884,1.40308
1289787572884,1.41062
1289787632884,1.40911
1289787692884,1.41834
1289787752884,1.40203
1289787812884,1.40946
1289787872884,1.41516
1289787932884,1.41311
1289787992884,1.42390
1289788052884,1.41526
1289788112884,1.41500
1289788172884,1.41387
1289788232884,1.42223
1289788292884,1.42270
1289788352884,1.41024
1289788412884,1.40779
1289788472884,1.40800
1289788532884,1.41352
1289788592884,1.40507
1289788652884,1.40372
1289788712884,1.42649
1289788772884,1.40727
1289788832884,1.40787
1289788892884,1.40990
1289788952884,1.40737
1289789012884,1.41052
1289789072884,1.42740
1289789132884,1.41177
1289789192884,1.39693
1289789252884,1.41633
1289789312884,1.41234
1289789372884,1.42258
1289789432884,1.42430
1289789492884,1.42747
1289789552884,1.42073
1289789612884,1.42569
1289789672884,1.41175
1289789732884,1.42101
1289789792884,1.41887
1289789852884,1.41078
1289789912884,1.42493
1289789972884,1.41619
1289790032895,1.43821
1289790092895,1.42203
1289790152895,1.41762
1289790212895,1.42317
1289790272895,1.43199
1289790332895,1.42541
1289790392895,1.41525
1289790452895,1.41866
1289790512895,1.41526
1289790572895,1.43319
1289790632895,1.42879
1289790692895,1.42488
1289790752895,1.43042
1289790812895,1.42742
1289790872895,1.42714
1289790932895,1.43425
1289790992895,1.42680
1289791052895,1.43020
1289791112895,1.43745
1289791172895,1.43712
1289791232895,1.43757
1289791292895,1.42728
1289791352895,1.44275
1289791412895,1.44079
1289791472895,1.44660
1289791532895,1.44206
1289791592895,1.43867
1289791652895,1.45497
1289791712895,1.43885
1289791772895,1.44671
1289791832895,1.44465
1289791892895,1.44731
1289791952895,1.44805
1289792012895,1.43660
1289792072895,1.44098
1289792132895,1.42882
1289792192895,1.44070
1289792252895,1.43489
1289792312895,1.44136
1289792372895,1.44757
1289792432895,1.45243
1289792492895,1.44255
1289792552895,1.43375
1289792612895,1.44822
1289792672895,1.43339
1289792732895,1.43847
1289792792895,1.44929
1289792852895,1.42983
1289792912895,1.43282
1289792972895,1.44494
1289793032895,1.42738
1289793092895,1.42770
1289793152895,1.43835
1289793212895,1.43695
1289793272895,1.43985
1289793332895,1.42900
1289793392895,1.43786
1289793452895,1.44283
1289793512895,1.43526
1289793572895,1.43342
1289793632905,1.43237
1289793692905,1.44226
1289793752905,1.43268
1289793812905,1.44991
1289793872905,1.43709
1289793932905,1.44261
1289793992905,1.43836
1289794052905,1.44776
1289794112905,1.43950
1289794172905,1.45680
1289794232905,1.44797
1289794292905,1.44875
1289794352905,1.43666
1289794412905,1.44275
1289794472905,1.45714
1289794532905,1.44769
1289794592905,1.45366
1289794652905,1.44834
1289794712905,1.43986
1289794772905,1.44967
1289794832905,1.44883
1289794892905,1.44675
1289794952905,1.45221
1289795012905,1.44784
1289795072905,1.45458
1289795132905,1.46104
1289795192905,1.44551
1289795252905,1.44706
1289795312905,1.45514
1289795372905,1.46463
1289795432905,1.45709
1289795492905,1.45493
1289795552905,1.45894
1289795612905,1.45932
1289795672905,1.45000
1289795732905,1.46318
1289795792905,1.45865
1289795852905,1.46590
1289795912905,1.44594
1289795972905,1.45939
1289796032905,1.45769
1289796092905,1.47302
1289796152905,1.45881
1289796212905,1.46407
1289796272905,1.45237
1289796332905,1.46843
1289796392905,1.46067
1289796452905,1.47423
1289796512905,1.46195
1289796572905,1.46814
1289796632905,1.46675
1289796692905,1.46569
1289796752905,1.47326
1289796812905,1.45969
1289796872905,1.46697
1289796932905,1.47035
1289796992905,1.47404
1289797052905,1.47679
1289797112905,1.47287
1289797172905,1.47395
1289797232915,1.47481
1289797292915,1.47319
1289797352915,1.45987
1289797412915,1.46462
1289797472915,1.46831
1289797532915,1.47044
1289797592915,1.47495
1289797652915,1.49152
1289797712915,1.47879
1289797772915,1.47479
1289797832915,1.48567
1289797892915,1.47314
1289797952915,1.48276
1289798012915,1.47540
1289798072915,1.47083
1289798132915,1.47278
1289798192915,1.47404
1289798252915,1.47124
1289798312915,1.47051
1289798372915,1.48356
1289798432915,1.48602
1289798492915,1.47252
1289798552915,1.47463
1289798612915,1.46493
1289798672915,1.47593
1289798732915,1.46967
1289798792915,1.47597
1289798852915,1.48281
1289798912915,1.47120
1289798972915,1.49086
1289799032915,1.46608
1289799092915,1.45780
1289799152915,1.46363
1289799212915,1.48133
1289799272915,1.47298
1289799332915,1.47341
1289799392915,1.47344
1289799452915,1.47395
1289799512915,1.46826
1289799572915,1.45822
1289799632915,1.46762
1289799692915,1.47200
1289799752915,1.45582
1289799812915,1.45639
1289799872915,1.46214
1289799932915,1.46708
1289799992915,1.46535
1289800052915,1.46471
1289800112915,1.46583
1289800172915,1.46900
1289800232915,1.46759
1289800292915,1.55645
1289800352915,1.47025
1289800412915,1.47222
1289800472915,1.46634
1289800532915,1.45999
1289800592915,1.47687
1289800652915,1.46108
1289800712915,1.45966
1289800772915,1.46785
1289800832926,1.46031
1289800892926,1.45175
1289800952926,1.45815
1289801012926,1.46081
1289801072926,1.47288
1289801132926,1.46517
1289801192926,1.46780
1289801252926,1.47729
1289801312926,1.46614
1289801372926,1.44498
1289801432926,1.46764
1289801492926,1.46144
1289801552926,1.46585
1289801612926,1.45777
1289801672926,1.46569
1289801732926,1.46411
1289801792926,1.46367
1289801852926,1.45800
1289801912926,1.46274
1289801972926,1.46625
1289802032926,1.46695
1289802092926,1.45178
1289802152926,1.46162
1289802212926,1.44259
1289802272926,1.45910
1289802332926,1.45539
1289802392926,1.46011
1289802452926,1.45838
1289802512926,1.44186
1289802572926,1.45971
1289802632926,1.44916
1289802692926,1.46293
1289802752926,1.50337
1289802812926,1.45511
1289802872926,1.45036
1289802932926,1.43775
1289802992926,1.45599
1289803052926,1.45094
1289803112926,1.51875
1289803172926,1.44898
1289803232926,1.44801
1289803292926,1.44178
1289803352926,1.45064
1289803412926,1.45030
1289803472926,1.45596
1289803532926,1.44027
1289803592926,1.44920
1289803652926,1.45738
1289803712926,1.45061
1289803772926,1.44854
1289803832926,1.44410
1289803892926,1.44236
1289803952926,1.45836
1289804012926,1.44368
1289804072926,1.44054
1289804132926,1.44287
1289804192926,1.44855
1289804252926,1.43990
1289804312926,1.44434
1289804372926,1.45096
1289804432937,1.44379
1289804492937,1.43994
1289804552937,1.43145
1289804612937,1.43943
1289804672937,1.43975
1289804732937,1.42819
1289804792937,1.45672
1289804852937,1.45171
1289804912937,1.44443
1289804972937,1.44831
1289805032937,1.43912
1289805092937,1.43671
1289805152937,1.42901
1289805212937,1.43525
1289805272937,1.43303
1289805332937,1.44335
1289805392937,1.44211
1289805452937,1.43572
1289805512937,1.47401
1289805572937,1.44111
1289805632937,1.45097
1289805692937,1.42585
1289805752937,1.42966
1289805812937,1.43334
1289805872937,1.42556
1289805932937,1.44442
1289805992937,1.42967
1289806052937,1.43233
1289806112937,1.43172
1289806172937,1.43037
1289806232937,1.43740
1289806292937,1.43554
1289806352937,1.44076
1289806412937,1.43160
1289806472937,1.44049
1289806532937,1.43847
1289806592937,1.44711
1289806652937,1.43789
1289806712937,1.44335
1289806772937,1.44175
1289806832937,1.43150
1289806892937,1.44138
1289806952937,1.44265
1289807012937,1.42557
1289807072937,1.44761
1289807132937,1.44818
1289807192937,1.45377
1289807252937,1.43617
1289807312937,1.44769
1289807372937,1.44847
1289807432937,1.46799
1289807492937,1.44980
1289807552937,1.46775
1289807612937,1.46341
1289807672937,1.47059
1289807732937,1.47155
1289807792937,1.47361
1289807852937,1.47570
1289807912937,1.47111
1289807972937,1.48450
1289808032948,1.48493
1289808092948,1.47921
1289808152948,1.48534
1289808212948,1.47781
1289808272948,1.48681
1289808332948,1.47517
1289808392948,1.48429
1289808452948,1.47966
1289808512948,1.46519
1289808572948,1.47177
1289808632948,1.46424
1289808692948,1.45336
1289808752948,1.44597
1289808812948,1.44458
1289808872948,1.45111
1289808932948,1.45366
1289808992948,1.45628
1289809052948,1.45201
1289809112948,1.44257
1289809172948,1.44094
1289809232948,1.44609
1289809292948,1.44911
1289809352948,1.45197
1289809412948,1.44406
1289809472948,1.44735
1289809532948,1.44906
1289809592948,1.44650
1289809652948,1.43625
1289809712948,1.44709
1289809772948,1.44132
1289809832948,1.44042
1289809892948,1.43815
1289809952948,1.44540
1289810012948,1.43901
1289810072948,1.43478
1289810132948,1.42442
1289810192948,1.41257
1289810252948,1.43617
1289810312948,1.43173
1289810372948,1.43077
1289810432948,1.43004
1289810492948,1.42632
1289810552948,1.43322
1289810612948,1.43626
1289810672948,1.43311
1289810732948,1.42778
1289810792948,1.42445
1289810852948,1.43132
1289810912948,1.43556
1289810972948,1.43242
1289811032948,1.43542
1289811092948,1.43411
1289811152948,1.44350
1289811212948,1.43409
1289811272948,1.43934
1289811332948,1.42981
1289811392948,1.41301
1289811452948,1.43793
1289811512948,1.43530
1289811572948,1.44051
1289811632959,1.43727
1289811692959,1.43593
1289811752959,1.43222
1289811812959,1.42842
1289811872959,1.42656
1289811932959,1.44269
1289811992959,1.43576
1289812052959,1.44189
1289812112959,1.44613
1289812172959,1.44325
1289812232959,1.44590
1289812292959,1.44132
1289812352959,1.43206
1289812412959,1.44114
1289812472959,1.43594
1289812532959,1.44487
1289812592959,1.43871
1289812652959,1.44589
1289812712959,1.45696
1289812772959,1.45214
1289812832959,1.46289
1289812892959,1.44211
1289812952959,1.44311
1289813012959,1.46225
1289813072959,1.44554
1289813132959,1.45498
1289813192959,1.45404
1289813252959,1.44820
1289813312959,1.45198
1289813372959,1.44640
1289813432959,1.46114
1289813492959,1.45257
1289813552959,1.44050
1289813612959,1.44346
1289813672959,1.44608
1289813732959,1.44400
1289813792959,1.45039
1289813852959,1.46259
1289813912959,1.44217
1289813972959,1.45628
1289814032959,1.44607
1289814092959,1.43909
1289814152959,1.44670
1289814212959,1.44481
1289814272959,1.45275
1289814332959,1.43758
1289814392959,1.43963
1289814452959,1.43830
1289814512959,1.44015
1289814572959,1.45899
1289814632959,1.43894
1289814692959,1.44665
1289814752959,1.44406
1289814812959,1.43750
1289814872959,1.43332
1289814932959,1.43899
1289814992959,1.43757
1289815052959,1.43442
1289815112959,1.44028
1289815172959,1.42678
1289815232970,1.44249
1289815292970,1.44386
1289815352970,1.44319
1289815412970,1.47032
1289815472970,1.43361
1289815532970,1.43221
1289815592970,1.44395
1289815652970,1.43246
1289815712970,1.44337
1289815772970,1.43568
1289815832970,1.43445
1289815892970,1.44046
1289815952970,1.42681
1289816012970,1.43667
1289816072970,1.42730
1289816132970,1.42954
1289816192970,1.42355
1289816252970,1.43062
1289816312970,1.43800
1289816372970,1.42795
1289816432970,1.42588
1289816492970,1.43405
1289816552970,1.42961
1289816612970,1.44088
1289816672970,1.44389
1289816732970,1.42440
1289816792970,1.43170
1289816852970,1.43019
1289816912970,1.49569
1289816972970,1.47566
1289817032970,1.42617
1289817092970,1.43038
1289817152970,1.42927
1289817212970,1.42391
1289817272970,1.43401
1289817332970,1.43250
1289817392970,1.43554
1289817452970,1.43547
1289817512970,1.43690
1289817572970,1.43643
1289817632970,1.44221
1289817692970,1.42740
1289817752970,1.43515
1289817812970,1.43114
1289817872970,1.44648
1289817932970,1.44295
1289817992970,1.42651
1289818052970,1.43462
1289818112970,1.43109
1289818172970,1.43312
1289818232970,1.43720
1289818292970,1.44887
1289818352970,1.43424
1289818412970,1.44654
1289818472970,1.44288
1289818532970,1.43546
1289818592970,1.44095
1289818652970,1.44271
1289818712970,1.44028
1289818772970,1.43381
1289818832982,1.42966
1289818892982,1.44671
1289818952982,1.43822
1289819012982,1.43575
1289819072982,1.44109
1289819132982,1.44166
1289819192982,1.43108
1289819252982,1.44397
1289819312982,1.44005
1289819372982,1.43808
1289819432982,1.43443
1289819492982,1.44807
1289819552982,1.43730
1289819612982,1.44020
1289819672982,1.43625
1289819732982,1.44399
1289819792982,1.43668
1289819852982,1.44297
1289819912982,1.44795
1289819972982,1.43559
1289820032982,1.44179
1289820092982,1.44584
1289820152982,1.44958
1289820212982,1.43357
1289820272982,1.43804
1289820332982,1.43700
1289820392982,1.44147
1289820452982,1.43811
1289820512982,1.43753
1289820572982,1.44414
1289820632982,1.44207
1289820692982,1.44923
1289820752982,1.43452
1289820812982,1.44245
1289820872982,1.44525
1289820932982,1.44972
1289820992982,1.44318
1289821052982,1.43989
1289821112982,1.43673
1289821172982,1.44574
1289821232982,1.44673
1289821292982,1.45945
1289821352982,1.44605
1289821412982,1.44247
1289821472982,1.44419
1289821532982,1.44520
1289821592982,1.45622
1289821652982,1.46066
1289821712982,1.45144
1289821772982,1.44422
1289821832982,1.44744
1289821892982,1.45256
1289821952982,1.44372
1289822012982,1.44356
1289822072982,1.46273
1289822132982,1.44643
1289822192982,1.45392
1289822252982,1.45184
1289822312982,1.45218
1289822372982,1.45416
1289822432994,1.45514
1289822492994,1.46078
1289822552994,1.45384
1289822612994,1.46228
1289822672994,1.46386
1289822732994,1.46023
1289822792994,1.46508
1289822852994,1.45844
1289822912994,1.46872
1289822972994,1.46669
1289823032994,1.46959
1289823092994,1.46753
1289823152994,1.46793
1289823212994,1.46512
1289823272994,1.46673
1289823332994,1.47483
1289823392994,1.46988
1289823452994,1.47568
1289823512994,1.48052
1289823572994,1.46919
1289823632994,1.45326
1289823692994,1.46584
1289823752994,1.47540
1289823812994,1.46668
1289823872994,1.45477
1289823932994,1.45839
1289823992994,1.45045
1289824052994,1.46097
1289824112994,1.46461
1289824172994,1.45711
1289824232994,1.44858
1289824292994,1.45165
1289824352994,1.45487
1289824412994,1.44787
1289824472994,1.44212
1289824532994,1.45680
1289824592994,1.47175
1289824652994,1.45551
1289824712994,1.45307
1289824772994,1.46309
1289824832994,1.45122
1289824892994,1.46885
1289824952994,1.45415
1289825012994,1.45426
1289825072994,1.47180
1289825132994,1.46098
1289825192994,1.46351
1289825252994,1.45875
1289825312994,1.45135
1289825372994,1.45219
1289825432994,1.44594
1289825492994,1.46901
1289825552994,1.45644
1289825612994,1.46299
1289825672994,1.46562
1289825732994,1.46403
1289825792994,1.45364
1289825852994,1.46082
1289825912994,1.46284
1289825972994,1.46962
1289826033006,1.46259
1289826093006,1.46088
1289826153006,1.45445
1289826213006,1.45973
1289826273006,1.45976
1289826333006,1.46130
1289826393006,1.46728
1289826453006,1.46157
1289826513006,1.45389
1289826573006,1.45803
1289826633006,1.47074
1289826693006,1.45874
1289826753006,1.47147
1289826813006,1.45163
1289826873006,1.46868
1289826933006,1.47392
1289826993006,1.47419
1289827053006,1.46880
1289827113006,1.45309
1289827173006,1.44794
1289827233006,1.47115
1289827293006,1.45944
1289827353006,1.47869
1289827413006,1.45704
1289827473006,1.47072
1289827533006,1.47225
1289827593006,1.46201
1289827653006,1.48410
1289827713006,1.48561
1289827773006,1.45952
1289827833006,1.47321
1289827893006,1.46997
1289827953006,1.47110
1289828013006,1.46323
1289828073006,1.47469
1289828133006,1.48387
1289828193006,1.45328
1289828253006,1.46600
1289828313006,1.47491
1289828373006,1.48110
1289828433006,1.47386
1289828493006,1.47720
1289828553006,1.46839
1289828613006,1.47340
1289828673006,1.46431
1289828733006,1.47383
1289828793006,1.47632
1289828853006,1.46331
1289828913006,1.48190
1289828973006,1.48515
1289829033006,1.48146
1289829093006,1.47170
1289829153006,1.45875
1289829213006,1.47815
1289829273006,1.46929
1289829333006,1.48801
1289829393006,1.47496
1289829453006,1.46637
1289829513006,1.47062
1289829573006,1.47892
1289829633018,1.48030
1289829693018,1.48714
1289829753018,1.47965
1289829813018,1.48116
1289829873018,1.49119
1289829933018,1.48436
1289829993018,1.47444
1289830053018,1.48015
1289830113018,1.47946
1289830173018,1.47951
1289830233018,1.47443
1289830293018,1.47096
1289830353018,1.47669
1289830413018,1.49688
1289830473018,1.49083
1289830533018,1.49346
1289830593018,1.48266
1289830653018,1.49205
1289830713018,1.48169
1289830773018,1.47685
1289830833018,1.48237
1289830893018,1.49958
1289830953018,1.49897
1289831013018,1.48726
1289831073018,1.48720
1289831133018,1.49920
1289831193018,1.50070
1289831253018,1.49816
1289831313018,1.48249
1289831373018,1.49896
1289831433018,1.49718
1289831493018,1.49548
1289831553018,1.48884
1289831613018,1.48717
1289831673018,1.48589
1289831733018,1.49749
1289831793018,1.49709
1289831853018,1.51007
1289831913018,1.50241
1289831973018,1.49798
1289832033018,1.49675
1289832093018,1.50551
1289832153018,1.52643
1289832213018,1.49867
1289832273018,1.51426
1289832333018,1.50367
1289832393018,1.50466
1289832453018,1.50897
1289832513018,1.50567
1289832573018,1.51211
1289832633018,1.49691
1289832693018,1.50217
1289832753018,1.50581
1289832813018,1.50416
1289832873018,1.66455
1289832933018,1.50223
1289832993018,1.49747
1289833053018,1.48919
1289833113018,1.48313
1289833173018,1.48499
1289833233030,1.50998
1289833293030,1.48789
1289833353030,1.48492
1289833413030,1.48121
1289833473030,1.47789
1289833533030,1.47734
1289833593030,1.46459
1289833653030,1.47483
1289833713030,1.47288
1289833773030,1.47880
1289833833030,1.47469
1289833893030,1.47938
1289833953030,1.47116
1289834013030,1.47252
1289834073030,1.47414
1289834133030,1.47119
1289834193030,1.47133
1289834253030,1.49207
1289834313030,1.47137
1289834373030,1.46757
1289834433030,1.47612
1289834493030,1.47217
1289834553030,1.47738
1289834613030,1.46671
1289834673030,1.48223
1289834733030,1.46932
1289834793030,1.44881
1289834853030,1.47994
1289834913030,1.47410
1289834973030,1.46086
1289835033030,1.46789
1289835093030,1.46975
1289835153030,1.46555
1289835213030,1.48739
1289835273030,1.48932
1289835333030,1.47376
1289835393030,1.47432
1289835453030,1.47123
1289835513030,1.47298
1289835573030,1.47349
1289835633030,1.47672
1289835693030,1.47403
1289835753030,1.48526
1289835813030,1.50814
1289835873030,1.46560
1289835933030,1.48110
1289835993030,1.47248
1289836053030,1.47134
1289836113030,1.47499
1289836173030,1.46037
1289836233030,1.46392
1289836293030,1.46110
1289836353030,1.47263
1289836413030,1.52381
1289836473030,1.46025
1289836533030,1.46600
1289836593030,1.45633
1289836653030,1.45709
1289836713030,1.45899
1289836773030,1.45392
1289836833042,1.47105
1289836893042,1.46879
1289836953042,1.45441
1289837013042,1.45440
1289837073042,1.46471
1289837133042,1.49118
1289837193042,1.46104
1289837253042,1.46666
1289837313042,1.46447
1289837373042,1.46075
1289837433042,1.47689
1289837493042,1.45029
1289837553042,1.45523
1289837613042,1.46270
1289837673042,1.46339
1289837733042,1.46243
1289837793042,1.46877
1289837853042,1.45744
1289837913042,1.45435
1289837973042,1.46498
1289838033042,1.46083
1289838093042,1.45038
1289838153042,1.44818
1289838213042,1.44701
1289838273042,1.46496
1289838333042,1.44386
1289838393042,1.45293
1289838453042,1.45056
1289838513042,1.46054
1289838573042,1.44928
1289838633042,1.44656
1289838693042,1.45499
1289838753042,1.45640
1289838813042,1.46565
1289838873042,1.44346
1289838933042,1.44835
1289838993042,1.44525
1289839053042,1.44139
1289839113042,1.45107
1289839173042,1.45881
1289839233042,1.45179
1289839293042,1.45853
1289839353042,1.44514
1289839413042,1.46272
1289839473042,1.44893
1289839533042,1.44502
1289839593042,1.44958
1289839653042,1.45203
1289839713042,1.45022
1289839773042,1.45813
1289839833042,1.44166
1289839893042,1.44436
1289839953042,1.44002
1289840013042,1.44424
1289840073042,1.43929
1289840133042,1.45450
1289840193042,1.44466
1289840253042,1.44668
1289840313042,1.44763
1289840373042,1.45455
1289840433054,1.44442
1289840493054,1.44848
1289840553054,1.43975
1289840613054,1.45229
1289840673054,1.44363
1289840733054,1.45144
1289840793054,1.46239
1289840853054,1.44256
1289840913054,1.44709
1289840973054,1.45505
1289841033054,1.44714
1289841093054,1.44804
1289841153054,1.44587
1289841213054,1.44832
1289841273054,1.51140
1289841333054,1.45322
1289841393054,1.45889
1289841453054,1.43709
1289841513054,1.45700
1289841573054,1.45166
1289841633054,1.44786
1289841693054,1.45512
1289841753054,1.46871
1289841813054,1.44565
1289841873054,1.45213
1289841933054,1.45663
1289841993054,1.45291
1289842053054,1.45346
1289842113054,1.44399
1289842173054,1.45416
1289842233054,1.45948
1289842293054,1.44594
1289842353054,1.45968
1289842413054,1.45986
1289842473054,1.45045
1289842533054,1.49560
1289842593054,1.45233
1289842653054,1.45918
1289842713054,1.44177
1289842773054,1.45191
1289842833054,1.45069
1289842893054,1.45212
1289842953054,1.45814
1289843013054,1.44773
1289843073054,1.50615
1289843133054,1.44694
1289843193054,1.45995
1289843253054,1.45356
1289843313054,1.44349
1289843373054,1.45566
1289843433054,1.45865
1289843493054,1.45898
1289843553054,1.44702
1289843613054,1.45272
1289843673054,1.45177
1289843733054,1.45315
1289843793054,1.44513
1289843853054,1.44839
1289843913054,1.44697
1289843973054,1.45106
1289844033066,1.44865
1289844093066,1.46459
1289844153066,1.44876
1289844213066,1.45922
1289844273066,1.44543
1289844333066,1.43467
1289844393066,1.44035
1289844453066,1.44614
1289844513066,1.44346
1289844573066,1.44301
1289844633066,1.44849
1289844693066,1.44455
1289844753066,1.44062
1289844813066,1.44238
1289844873066,1.45305
1289844933066,1.45050
1289844993066,1.44543
1289845053066,1.45352